CZ-6A DEB, 54416

Orbit data source: Space-Track

CZ-6A DEB, 54416 is space debris in SSO originally from a launch on Fri, 11 Nov 2022 UTC launched from the Taiyaun Space Center, China (TSC). Debris objects in space refer to the collection of defunct objects orbiting the Earth. Examples of debris include non-operational satellites, rocket bodies, and fragments generated from explosions, collisions, or faulty payload assembly.

Loading next visibility...
Identifier
54416, 2022-151EQ
Orbit
SSO
Country
Flag of CNCN / PRC
Related business
Manufacturer
SAST
Mission
Spacecraft
Bus & Motor
Unknown
Mass
Unknown
Launch date (UTC)
2022-11-11 (4 years ago)
Launch vehicle
Unknown
Launch site
Taiyaun Space Center, China (TSC)
Object type
Payload
Rocket body
Debris
Shape & HBR
Unknown shape, 0.2 m
Radar Cross Section
Medium (>0.1 m² and <1 m²)

Expand to show TLE details & history
Last TLE update: 2 days ago

TLE from 2 days ago
0 CZ-6A DEB
1 54416U 22151EQ  26171.34642407  .00000419  00000-0  37360-3 0  9994
2 54416  98.9314 118.3283 0175904 138.2873 223.1849 13.82910218181587
Epoch: 2026-06-20T08:18Z
TLE epoch observation values (Epoch: 2026-06-20T08:18:51.039Z)
Latitude
-0.00007°
Longitude
85.05328°
Altitude
1,051.539 km
Speed
7.278 km/s
True Right ascension
07h 53m 18s
True Declination
0° 00' 00"
Sunlit
Object was in daylight at epoch
Visualization orbit readout
Latitude
Unknown
Longitude
Unknown
Altitude
Unknown
Speed
Unknown
Apparent Right ascension
Unknown
Apparent Declination
Unknown
Sunlit
N/A
Visualization observer readout
Local Sidereal Time
21:33:52
Azimuth
Unknown
Elevation
Unknown
Doppler factor
Unknown
Orbital elements
Apogee altitude
1,079.719 km
Perigee altitude
821.881 km
Semi-major axis
7,328.937 km
Eccentricity
0.01759
Inclination
98.9314°
RAAN
118.3283°
Arg. of periapsis
138.2873°
True anomaly
221.82735°
Mean anomaly
223.1849°
Eccentric anomaly
222.50395°
Mean motion
3.45925 °/min
Orbital period
104.07 mins
BSTAR
0.0003736
Loading maneuver chart data...
Computing Atmospheric mass density...
Loading historical data...
Loading historical data...
Loading historical data...
Loading historical data...
Loading historical data...
Loading historical data...
Loading historical data...

Documentation

Showing up to 5 results
|